This demonstration page uses our WeatherBlox Daily Observations layout. Learn more.

Left ArrowRight Arrow

34.74481, -87.66753

Hourly Observations for December 30, 2020

Temp ( °F °C ) Dew Point ( °F °C ) Humidity (%) Winds ( mph kmh ) Pressure ( in mb ) Visibility ( mi km ) Precip ( " mm )
12:53 am 00:53 Clear 46 7.8 39 3.9 77 77 SE 6 9 30.20 1023 10 16 0.00 0.00
1:53 am 01:53 Mostly Cloudy 50 10 42 5.6 74 74 SE 8 13 30.18 1022 10 16 0.00 0.00
2:53 am 02:53 Mostly Clear 53 11.7 43 6.1 69 69 SSE 9 15 30.18 1022 10 16 0.00 0.00
3:53 am 03:53 Clear 52 11.1 42 5.6 69 69 SSE 7 11 30.15 1021 10 16 0.00 0.00
4:53 am 04:53 Partly Cloudy 52 11.1 42 5.6 69 69 SE 8 13 30.15 1021 10 16 0.00 0.00
5:53 am 05:53 Mostly Cloudy 54 12.2 43 6.1 67 67 SE 10 17 30.16 1021 10 16 0.00 0.00
6:53 am 06:53 Mostly Cloudy 55 12.8 43 6.1 64 64 SSE 10 17 30.16 1022 10 16 0.00 0.00
7:53 am 07:53 Cloudy 56 13.3 43 6.1 62 62 SSE 12 19 30.17 1022 10 16 0.00 0.00
8:53 am 08:53 Cloudy 58 14.4 44 6.7 60 60 SSE 15 24 30.17 1022 10 16 0.00 0.00
9:53 am 09:53 Sunny 60 15.6 47 8.3 62 62 SSE 15 24 30.16 1021 10 16 0.00 0.00
10:53 am 10:53 Sunny 65 18.3 48 8.9 54 54 S 15 24 30.13 1020 10 16 0.00 0.00
11:53 am 11:53 Sunny 66 18.9 49 9.4 54 54 S 13 20 30.09 1019 10 16 0.00 0.00
12:53 pm 12:53 Mostly Sunny 69 20.6 50 10 51 51 S 17 28 30.04 1017 10 16 0.00 0.00
1:53 pm 13:53 Sunny 71 21.7 49 9.4 46 46 S 17 28 30.01 1016 10 16 0.00 0.00
2:53 pm 14:53 Partly Cloudy 70 21.1 48 8.9 46 46 S 13 20 30.00 1016 10 16 0.00 0.00
3:53 pm 15:53 Mostly Cloudy 70 21.1 49 9.4 47 47 S 9 15 30.00 1016 10 16 0.00 0.00
4:53 pm 16:53 Cloudy 68 20 48 8.9 49 49 S 9 15 30.00 1016 10 16 0.00 0.00
5:53 pm 17:53 Cloudy 67 19.4 48 8.9 51 51 S 9 15 30.01 1016 10 16 0.00 0.00
6:53 pm 18:53 Cloudy 66 18.9 49 9.4 54 54 S 7 11 30.00 1016 10 16 0.00 0.00
7:53 pm 19:53 Cloudy 65 18.3 50 10 59 59 S 10 17 30.00 1016 10 16 0.00 0.00
8:53 pm 20:53 Cloudy 66 18.9 50 10 56 56 S 8 13 29.99 1016 10 16 0.00 0.00
9:53 pm 21:53 Cloudy 66 18.9 50 10 56 56 S 13 20 29.98 1015 10 16 0.00 0.00
10:53 pm 22:53 Cloudy 66 18.9 50 10 56 56 S 15 24 29.98 1015 10 16 0.00 0.00
11:53 pm 23:53 Cloudy 64 17.8 50 10 60 60 WSW 7 11 30.00 1016 10 16 0.00 0.00

Powered by AerisWeather